• In Denmark
  • List of Countries
  • For 7 days
  • Water Temperature
  • Satellite Maps
  • Weather Map
  • Weather Widgets
  • user-avatar
    Login

    Hourly Weather Hrazdan

    Today, 20 January, Saturday

    Time Temperature Precipitation Wind Pressure Humidity
    00:00 -4°C° 0.1 mm 2 mps 605 mmHg 85%
    01:00 -4°C° 0.1 mm 2 mps 606 mmHg 86%
    02:00 -4°C° 0.1 mm 2 mps 606 mmHg 88%
    03:00 -2°C° 0 mm 3 mps 606 mmHg 90%
    04:00 -2°C° 0.7 mm 2 mps 607 mmHg 90%
    05:00 -3°C° 0.7 mm 2 mps 607 mmHg 90%
    06:00 -3°C° 0.7 mm 2 mps 608 mmHg 91%
    07:00 -3°C° 0.4 mm 2 mps 608 mmHg 89%
    08:00 -1°C° 0.4 mm 1 mps 609 mmHg 88%
    09:00 0°C° 0.4 mm 1 mps 609 mmHg 87%
    10:00 0°C° 0.1 mm 1 mps 610 mmHg 84%
    11:00 +1°C° 0.1 mm 1 mps 610 mmHg 81%
    12:00 +2°C° 0.1 mm 1 mps 610 mmHg 78%
    13:00 +2°C° 0 mm 1 mps 610 mmHg 77%
    14:00 +2°C° 0 mm 1 mps 610 mmHg 77%
    15:00 +2°C° 0 mm 1 mps 611 mmHg 76%
    16:00 0°C° 0 mm 1 mps 610 mmHg 78%
    17:00 -1°C° 0 mm 1 mps 610 mmHg 79%
    18:00 -3°C° 0 mm 1 mps 610 mmHg 81%
    19:00 -3°C° 0 mm 1 mps 611 mmHg 80%
    20:00 -4°C° 0 mm 1 mps 611 mmHg 80%
    21:00 -4°C° 0 mm 1 mps 611 mmHg 79%
    22:00 -4°C° 0 mm 1 mps 611 mmHg 79%
    23:00 -6°C° 0 mm 2 mps 611 mmHg 79%

    Tomorrow, 21 January, Sunday

    Time Temperature Precipitation Wind Pressure Humidity
    00:00 -6°C° 0 mm 2 mps 611 mmHg 78%
    01:00 -6°C° 0 mm 2 mps 611 mmHg 78%
    02:00 -6°C° 0 mm 2 mps 611 mmHg 77%
    03:00 -6°C° 0 mm 2 mps 612 mmHg 76%
    04:00 -6°C° 0 mm 2 mps 612 mmHg 76%
    05:00 -7°C° 0 mm 2 mps 611 mmHg 76%
    06:00 -7°C° 0 mm 2 mps 611 mmHg 75%
    07:00 -6°C° 0 mm 2 mps 612 mmHg 74%
    08:00 -5°C° 0 mm 2 mps 612 mmHg 73%
    09:00 -4°C° 0 mm 2 mps 612 mmHg 71%
    10:00 -4°C° 0 mm 3 mps 612 mmHg 70%
    11:00 -2°C° 0 mm 3 mps 612 mmHg 68%
    12:00 -1°C° 0 mm 3 mps 613 mmHg 67%
    13:00 -1°C° 0 mm 3 mps 612 mmHg 67%
    14:00 -1°C° 0 mm 3 mps 612 mmHg 66%
    15:00 -1°C° 0 mm 2 mps 612 mmHg 66%
    16:00 -2°C° 0 mm 2 mps 612 mmHg 66%
    17:00 -4°C° 0 mm 2 mps 612 mmHg 66%
    18:00 -5°C° 0 mm 2 mps 611 mmHg 66%
    19:00 -5°C° 0 mm 2 mps 611 mmHg 65%
    20:00 -5°C° 0 mm 2 mps 611 mmHg 63%
    21:00 -6°C° 0 mm 2 mps 611 mmHg 62%
    22:00 -6°C° 0 mm 2 mps 611 mmHg 62%
    23:00 -5°C° 0 mm 2 mps 611 mmHg 62%

    Day after tomorrow, 22 January, Monday

    Time Temperature Precipitation Wind Pressure Humidity
    00:00 -5°C° 0 mm 2 mps 610 mmHg 62%
    01:00 -5°C° 0 mm 2 mps 610 mmHg 62%
    02:00 -5°C° 0 mm 2 mps 610 mmHg 61%
    03:00 -5°C° 0 mm 2 mps 610 mmHg 61%
    04:00 -5°C° 0 mm 2 mps 610 mmHg 61%
    05:00 -5°C° 0 mm 2 mps 609 mmHg 60%
    06:00 -5°C° 0 mm 2 mps 609 mmHg 60%
    07:00 -4°C° 0 mm 2 mps 609 mmHg 60%
    08:00 -3°C° 0 mm 2 mps 609 mmHg 60%
    09:00 -3°C° 0 mm 2 mps 609 mmHg 61%
    10:00 -2°C° 0 mm 2 mps 609 mmHg 61%
    11:00 +1°C° 0 mm 2 mps 609 mmHg 60%
    12:00 +2°C° 0 mm 2 mps 609 mmHg 60%
    13:00 +2°C° 0 mm 2 mps 609 mmHg 61%
    14:00 +2°C° 0 mm 2 mps 608 mmHg 61%
    15:00 +1°C° 0 mm 2 mps 608 mmHg 62%
    16:00 -1°C° 0 mm 2 mps 607 mmHg 60%
    17:00 -3°C° 0 mm 2 mps 607 mmHg 58%
    18:00 -4°C° 0 mm 2 mps 606 mmHg 57%
    19:00 -5°C° 0 mm 2 mps 606 mmHg 56%
    20:00 -5°C° 0 mm 2 mps 606 mmHg 55%
    21:00 -5°C° 0 mm 2 mps 606 mmHg 54%
    22:00 -5°C° 0 mm 2 mps 606 mmHg 55%
    23:00 -6°C° 0 mm 2 mps 606 mmHg 56%

    23 January, Tuesday

    Time Temperature Precipitation Wind Pressure Humidity
    00:00 -6°C° 0 mm 2 mps 606 mmHg 58%
    01:00 -6°C° 0 mm 2 mps 606 mmHg 58%
    02:00 -6°C° 0 mm 2 mps 606 mmHg 59%
    03:00 -6°C° 0 mm 2 mps 606 mmHg 59%
    04:00 -6°C° 0 mm 2 mps 605 mmHg 60%
    05:00 -6°C° 0 mm 2 mps 605 mmHg 60%
    06:00 -7°C° 0 mm 2 mps 605 mmHg 60%
    07:00 -6°C° 0 mm 2 mps 605 mmHg 60%
    08:00 -5°C° 0 mm 2 mps 606 mmHg 61%
    09:00 -5°C° 0 mm 2 mps 606 mmHg 61%
    10:00 -4°C° 0 mm 3 mps 606 mmHg 60%
    11:00 -2°C° 0 mm 3 mps 606 mmHg 59%
    12:00 -1°C° 0 mm 3 mps 606 mmHg 59%
    13:00 -1°C° 0 mm 2 mps 606 mmHg 59%
    14:00 -1°C° 0 mm 2 mps 606 mmHg 60%
    15:00 -1°C° 0 mm 2 mps 605 mmHg 61%
    16:00 -2°C° 0 mm 2 mps 605 mmHg 62%
    17:00 -2°C° 0 mm 2 mps 605 mmHg 62%
    18:00 -3°C° 0 mm 2 mps 605 mmHg 62%
    19:00 -3°C° 0 mm 2 mps 605 mmHg 63%
    20:00 -3°C° 0 mm 2 mps 605 mmHg 63%
    21:00 -3°C° 0 mm 2 mps 605 mmHg 63%
    22:00 -4°C° 0 mm 2 mps 605 mmHg 64%
    23:00 -4°C° 0 mm 2 mps 605 mmHg 65%

    24 January, Wednesday

    Time Temperature Precipitation Wind Pressure Humidity
    00:00 -4°C° 0 mm 2 mps 605 mmHg 66%
    01:00 -4°C° 0 mm 2 mps 605 mmHg 67%
    02:00 -3°C° 0 mm 1 mps 605 mmHg 67%
    03:00 -3°C° 0 mm 1 mps 605 mmHg 68%
    04:00 -3°C° 0 mm 1 mps 605 mmHg 69%
    05:00 -4°C° 0 mm 1 mps 605 mmHg 69%
    06:00 -4°C° 0 mm 1 mps 605 mmHg 70%
    07:00 -4°C° 0 mm 1 mps 606 mmHg 70%
    08:00 -3°C° 0 mm 1 mps 607 mmHg 70%
    09:00 -3°C° 0 mm 1 mps 607 mmHg 71%
    10:00 -2°C° 0 mm 1 mps 608 mmHg 70%
    11:00 -1°C° 0 mm 1 mps 608 mmHg 70%
    12:00 0°C° 0 mm 1 mps 608 mmHg 70%
    13:00 0°C° 0.1 mm 1 mps 608 mmHg 71%
    14:00 0°C° 0.1 mm 1 mps 608 mmHg 72%
    15:00 0°C° 0.1 mm 1 mps 608 mmHg 72%
    16:00 -1°C° 0 mm 1 mps 608 mmHg 74%
    17:00 -2°C° 0 mm 1 mps 608 mmHg 76%
    18:00 -4°C° 0 mm 1 mps 608 mmHg 77%
    19:00 -4°C° 0 mm 1 mps 609 mmHg 76%
    20:00 -4°C° 0 mm 1 mps 609 mmHg 76%
    21:00 -4°C° 0 mm 1 mps 609 mmHg 75%
    22:00 -4°C° 0 mm 1 mps 610 mmHg 74%
    23:00 -4°C° 0 mm 1 mps 610 mmHg 74%

    25 January, Thursday

    Time Temperature Precipitation Wind Pressure Humidity
    00:00 -4°C° 0 mm 1 mps 610 mmHg 73%
    01:00 -4°C° 0 mm 1 mps 610 mmHg 74%
    02:00 -4°C° 0 mm 1 mps 611 mmHg 74%
    03:00 -4°C° 0 mm 1 mps 611 mmHg 74%
    04:00 -4°C° 0 mm 1 mps 611 mmHg 74%
    05:00 -4°C° 0 mm 1 mps 611 mmHg 75%
    06:00 -6°C° 0 mm 1 mps 611 mmHg 75%
    07:00 -5°C° 0 mm 0 mps 612 mmHg 74%
    08:00 -4°C° 0 mm 0 mps 613 mmHg 74%
    09:00 -4°C° 0 mm 0 mps 613 mmHg 73%
    10:00 -2°C° 0 mm 1 mps 613 mmHg 72%
    11:00 -1°C° 0 mm 1 mps 614 mmHg 71%
    12:00 0°C° 0 mm 1 mps 614 mmHg 70%
    13:00 0°C° 0 mm 1 mps 614 mmHg 71%
    14:00 0°C° 0 mm 1 mps 613 mmHg 73%
    15:00 0°C° 0 mm 1 mps 613 mmHg 75%
    16:00 -1°C° 0 mm 1 mps 613 mmHg 78%
    17:00 -2°C° 0 mm 1 mps 613 mmHg 81%
    18:00 -3°C° 0 mm 1 mps 613 mmHg 84%
    19:00 -3°C° 0 mm 1 mps 613 mmHg 85%
    20:00 -3°C° 0 mm 1 mps 614 mmHg 86%
    21:00 -3°C° 0 mm 1 mps 614 mmHg 87%
    22:00 -3°C° 0 mm 1 mps 614 mmHg 87%
    23:00 -3°C° 0 mm 1 mps 614 mmHg 88%
    Show more